Weather History for Le Mars, IA

Change the Weather History Date:

Wednesday, November 27, 2013

  Actual Average Record
Temperature  
Mean Temperature 18 °F -  
Max Temperature 32 °F 34 °F 71 °F (1998)
Min Temperature 5 °F 17 °F -5 °F (1993)
Degree Days  
Heating Degree Days 46    
Moisture  
Dew Point 9 °F    
Average Humidity 66    
Maximum Humidity 85    
Minimum Humidity 41    
Precipitation  
Precipitation 0.00 in - - ()
Sea Level Pressure  
Sea Level Pressure 30.19 in    
Wind  
Wind Speed 6 mph (South)    
Max Wind Speed 23 mph    
Max Gust Speed 34 mph    
Visibility 10 miles    
Events      
Averages and records for this station are not official NWS values.
T = Trace of Precipitation, MM = Missing Value Source: NWS Daily Summary

Daily Weather History Graph

Daily Weather History Graph

Search for Another Location

Airport:

Trip Planner

Search our weather history database for the weather conditions in past years. The results will help you decide how hot, cold, wet, or windy it might be!

Date:

Astronomy

Nov. 27, 2013 Rise Set
Actual Time 7:31 AM CST 4:53 PM CST
Civil Twilight 7:00 AM CST 5:24 PM CST
Nautical Twilight 6:25 AM CST 5:59 PM CST
Astronomical Twilight 5:51 AM CST 6:33 PM CST
Moon 1:26 AM CST (11/27) 1:38 PM CST (11/27)
Length of Visible Light 10h 24m
Length of Day
9h 21m
Waning Crescent, 31% of the Moon is Illuminated
Nov 27
Waning Crescent
Dec 2
New
Dec 9
First Quarter
Dec 17
Full
Dec 25
Last Quarter

Hourly Weather History & Observations

Time (CST) Temp. Windchill Dew Point Humidity Pressure Visibility Wind Dir Wind Speed Gust Speed Precip Events Conditions
12:15 AM 12.2 °F - 5.0 °F 73% 30.42 in 10.0 mi Calm Calm - N/A   Clear
12:35 AM 12.2 °F - 5.0 °F 73% 30.42 in 10.0 mi Calm Calm - N/A   Clear
12:55 AM 10.4 °F - 5.0 °F 79% 30.41 in 10.0 mi Calm Calm - N/A   Clear
1:15 AM 10.4 °F - 5.0 °F 79% 30.41 in 10.0 mi Calm Calm - N/A   Clear
1:35 AM 10.4 °F - 5.0 °F 79% 30.41 in 10.0 mi Calm Calm - N/A   Clear
1:55 AM 10.4 °F - 5.0 °F 79% 30.41 in 10.0 mi Calm Calm - N/A   Clear
2:15 AM 8.6 °F - 5.0 °F 85% 30.41 in 10.0 mi Calm Calm - N/A   Clear
2:35 AM 10.4 °F 0.8 °F 5.0 °F 79% 30.40 in 10.0 mi North 5.8 mph - N/A   Clear
2:55 AM 10.4 °F - 5.0 °F 79% 30.40 in 10.0 mi Calm Calm - N/A   Clear
3:15 AM 8.6 °F - 3.2 °F 79% 30.40 in 10.0 mi Calm Calm - N/A   Clear
3:35 AM 8.6 °F - 3.2 °F 79% 30.39 in 10.0 mi Calm Calm - N/A   Clear
3:55 AM 6.8 °F - 3.2 °F 85% 30.39 in 10.0 mi Calm Calm - N/A   Clear
4:15 AM 6.8 °F - 3.2 °F 85% 30.39 in 10.0 mi Calm Calm - N/A   Clear
4:35 AM 5.0 °F - 1.4 °F 85% 30.39 in 10.0 mi Calm Calm - N/A   Clear
4:55 AM 6.8 °F - 3.2 °F 85% 30.40 in 10.0 mi Calm Calm - N/A   Clear
5:15 AM 6.8 °F - 3.2 °F 85% 30.39 in 10.0 mi Calm Calm - N/A   Clear
5:35 AM 5.0 °F - 1.4 °F 85% 30.39 in 10.0 mi Calm Calm - N/A   Clear
5:55 AM 6.8 °F - 3.2 °F 85% 30.38 in 10.0 mi Calm Calm - N/A   Clear
6:15 AM 5.0 °F -4.1 °F 1.4 °F 85% 30.38 in 10.0 mi SSW 4.6 mph - N/A   Unknown
6:35 AM 5.0 °F - 1.4 °F 85% 30.37 in 10.0 mi Calm Calm - N/A   Clear
6:55 AM 5.0 °F - 1.4 °F 85% 30.37 in 10.0 mi Calm Calm - N/A   Clear
7:15 AM 5.0 °F - 1.4 °F 85% 30.37 in 10.0 mi Calm Calm - N/A   Clear
7:35 AM 5.0 °F - 1.4 °F 85% 30.37 in 10.0 mi Calm Calm - N/A   Clear
7:55 AM 6.8 °F - 3.2 °F 85% 30.35 in 10.0 mi Calm Calm - N/A   Clear
8:15 AM 6.8 °F - 3.2 °F 85% 30.35 in 10.0 mi Calm Calm - N/A   Clear
8:35 AM 10.4 °F - 5.0 °F 79% 30.34 in 10.0 mi Calm Calm - N/A   Clear
8:55 AM 10.4 °F 4.0 °F 6.8 °F 85% 30.33 in 10.0 mi SSW 3.5 mph - N/A   Clear
9:15 AM 14.0 °F 6.5 °F 8.6 °F 79% 30.32 in 10.0 mi SSW 4.6 mph - N/A   Clear
9:35 AM 17.6 °F 8.2 °F 12.2 °F 79% 30.32 in 10.0 mi South 6.9 mph - N/A   Clear
9:55 AM 17.6 °F 6.4 °F 10.4 °F 73% 30.32 in 10.0 mi South 9.2 mph - N/A   Clear
10:15 AM 19.4 °F 7.9 °F 12.2 °F 74% 30.31 in 10.0 mi South 10.4 mph - N/A   Clear
10:35 AM 19.4 °F 6.6 °F 10.4 °F 68% 30.30 in 10.0 mi South 12.7 mph - N/A   Clear
10:55 AM 21.2 °F 8.9 °F 12.2 °F 68% 30.29 in 10.0 mi South 12.7 mph - N/A   Clear
11:15 AM 23.0 °F 11.1 °F 12.2 °F 63% 30.27 in 10.0 mi South 12.7 mph - N/A   Clear
11:35 AM 23.0 °F 10.6 °F 12.2 °F 63% 30.23 in 10.0 mi South 13.8 mph 20.7 mph N/A   Clear
11:55 AM 24.8 °F 11.9 °F 10.4 °F 54% 30.22 in 10.0 mi South 16.1 mph - N/A   Clear
12:15 PM 24.8 °F 11.5 °F 10.4 °F 54% 30.20 in 10.0 mi South 17.3 mph - N/A   Clear
12:35 PM 26.6 °F 14.3 °F 10.4 °F 51% 30.18 in 10.0 mi South 16.1 mph 23.0 mph N/A   Clear
12:55 PM 26.6 °F 13.4 °F 10.4 °F 51% 30.16 in 10.0 mi South 18.4 mph - N/A   Clear
1:15 PM 26.6 °F 13.8 °F 10.4 °F 51% 30.14 in 10.0 mi South 17.3 mph 26.5 mph N/A   Clear
1:35 PM 28.4 °F 15.1 °F 10.4 °F 47% 30.12 in 10.0 mi South 20.7 mph - N/A   Clear
1:55 PM 28.4 °F 14.7 °F 10.4 °F 47% 30.09 in 10.0 mi South 21.9 mph - N/A   Clear
2:15 PM 28.4 °F 14.4 °F 10.4 °F 47% 30.07 in 10.0 mi South 23.0 mph 28.8 mph N/A   Clear
2:35 PM 28.4 °F 15.1 °F 10.4 °F 47% 30.05 in 10.0 mi South 20.7 mph 29.9 mph N/A   Clear
2:55 PM 30.2 °F 16.8 °F 10.4 °F 44% 30.04 in 10.0 mi South 23.0 mph 29.9 mph N/A   Clear
3:15 PM 30.2 °F 17.1 °F 10.4 °F 44% 30.04 in 10.0 mi South 21.9 mph 28.8 mph N/A   Clear
3:35 PM 32.0 °F 19.8 °F 10.4 °F 41% 30.03 in 10.0 mi South 20.7 mph 31.1 mph N/A   Clear
3:55 PM 30.2 °F 16.8 °F 10.4 °F 44% 30.00 in 10.0 mi South 23.0 mph 34.5 mph N/A   Clear
4:15 PM 30.2 °F 19.3 °F 10.4 °F 44% 30.01 in 10.0 mi South 15.0 mph 27.6 mph N/A   Clear
4:35 PM 30.2 °F 17.8 °F 10.4 °F 44% 30.00 in 10.0 mi South 19.6 mph - N/A   Clear
4:55 PM 28.4 °F 17.0 °F 10.4 °F 47% 30.01 in 10.0 mi South 15.0 mph 20.7 mph N/A   Clear
5:15 PM 28.4 °F 18.0 °F 12.2 °F 51% 30.01 in 10.0 mi South 12.7 mph - N/A   Clear
5:35 PM 28.4 °F 17.5 °F 12.2 °F 51% 30.00 in 10.0 mi South 13.8 mph - N/A   Clear
5:55 PM 28.4 °F 17.0 °F 12.2 °F 51% 29.99 in 10.0 mi South 15.0 mph - N/A   Clear
6:15 PM 28.4 °F 17.0 °F 12.2 °F 51% 29.98 in 10.0 mi South 15.0 mph 21.9 mph N/A   Clear
6:35 PM 28.4 °F 18.0 °F 12.2 °F 51% 29.99 in 10.0 mi South 12.7 mph 19.6 mph N/A   Unknown
6:55 PM 28.4 °F 17.5 °F 12.2 °F 51% 29.98 in 10.0 mi South 13.8 mph - N/A   Unknown
7:15 PM 28.4 °F 17.5 °F 14.0 °F 55% 29.97 in 10.0 mi South 13.8 mph - N/A   Unknown
7:35 PM 28.4 °F 17.5 °F 14.0 °F 55% 29.97 in 10.0 mi South 13.8 mph - N/A   Unknown
7:55 PM 28.4 °F 17.0 °F 14.0 °F 55% 29.96 in 10.0 mi South 15.0 mph - N/A   Clear
8:15 PM 28.4 °F 19.1 °F 14.0 °F 55% 29.96 in 10.0 mi South 10.4 mph - N/A   Clear
8:35 PM 28.4 °F 18.0 °F 14.0 °F 55% 29.95 in 10.0 mi South 12.7 mph - N/A   Clear
8:55 PM 26.6 °F 16.2 °F 14.0 °F 59% 29.96 in 10.0 mi South 11.5 mph - N/A   Unknown
9:15 PM 26.6 °F 16.2 °F 14.0 °F 59% 29.95 in 10.0 mi South 11.5 mph - N/A   Clear
9:35 PM 26.6 °F 20.0 °F 14.0 °F 59% 29.96 in 10.0 mi SSW 5.8 mph - N/A   Clear
9:55 PM 26.6 °F 18.2 °F 14.0 °F 59% 29.96 in 10.0 mi South 8.1 mph 23.0 mph N/A   Clear
10:15 PM 24.8 °F 19.1 °F 14.0 °F 64% 29.96 in 10.0 mi South 4.6 mph - N/A   Clear
10:35 PM 23.0 °F - 14.0 °F 68% 29.96 in 10.0 mi Calm Calm - N/A   Clear
10:55 PM 21.2 °F - 14.0 °F 74% 29.97 in 10.0 mi Calm Calm - N/A   Clear
11:15 PM 19.4 °F - 14.0 °F 80% 29.98 in 10.0 mi Calm Calm - N/A   Clear
11:35 PM 26.6 °F 16.8 °F 17.6 °F 69% 29.99 in 10.0 mi NW 10.4 mph - N/A   Clear
11:55 PM 26.6 °F 14.7 °F 17.6 °F 69% 30.01 in 10.0 mi NW 15.0 mph 20.7 mph N/A   Clear